DLH760 EDDF-VIDP

Flight info

Callsign DLH760
Flight time N/A
Altitude 37000
Route CINDY8S/18 CINDY Z74 HAREM DCT ASLEP DCT TAKUT DCT DINKU L603 BESNI L605 MIQ DCT ALUTU DCT BIBAG Q104 AKIMA DCT STEIN DCT TEGRI DCT DINRO N743 UDROS UM859 KARDE UL851 TBN UR317 REBLO P130 MAMED B449 RANAH L750 MERUN G452 LKA LKA7G
Aircraft A333/H-SDE3GHIJ2J3J5M1RVWXY/LB2D1

Departure

Time 2026-05-03 22:12
Airport Frankfurt Main Airport (EDDF)

Arrival

Time N/A
Airport Indira Gandhi International Airport (VIDP)
Time Latitude Longitude Altitude Speed Heading
2026-05-03 21:54 50.04766 8.56383 368 ft 0 kts 340°
2026-05-03 22:03 50.04760 8.56386 360 ft 2 kts 339°
2026-05-03 22:03 50.04745 8.56395 365 ft 2 kts 338°
2026-05-03 22:03 50.04730 8.56405 364 ft 2 kts 337°
2026-05-03 22:03 50.04715 8.56415 367 ft 2 kts 335°
2026-05-03 22:04 50.04700 8.56426 363 ft 2 kts 330°
2026-05-03 22:04 50.04686 8.56440 367 ft 2 kts 320°
2026-05-03 22:04 50.04675 8.56459 364 ft 2 kts 274°
2026-05-03 22:04 50.04676 8.56474 368 ft 0 kts 249°
2026-05-03 22:05 50.04676 8.56471 368 ft 1 kts 249°
2026-05-03 22:05 50.04673 8.56460 364 ft 2 kts 249°
2026-05-03 22:05 50.04663 8.56421 367 ft 8 kts 249°
2026-05-03 22:05 50.04643 8.56341 364 ft 9 kts 249°
2026-05-03 22:06 50.04610 8.56201 365 ft 16 kts 250°
2026-05-03 22:06 50.04572 8.56036 365 ft 18 kts 250°
2026-05-03 22:06 50.04510 8.55940 366 ft 9 kts 194°
2026-05-03 22:06 50.04411 8.55912 368 ft 19 kts 176°
2026-05-03 22:07 50.04274 8.55948 364 ft 19 kts 191°
2026-05-03 22:07 50.04215 8.55884 363 ft 10 kts 256°
2026-05-03 22:07 50.04175 8.55671 365 ft 23 kts 248°
2026-05-03 22:07 50.04115 8.55438 362 ft 23 kts 248°
2026-05-03 22:08 50.04067 8.55215 365 ft 21 kts 251°
2026-05-03 22:08 50.04016 8.55001 364 ft 21 kts 249°
2026-05-03 22:08 50.03962 8.54782 361 ft 22 kts 249°
2026-05-03 22:08 50.03907 8.54553 360 ft 23 kts 250°
2026-05-03 22:09 50.03841 8.54326 358 ft 22 kts 233°
2026-05-03 22:09 50.03773 8.54119 352 ft 21 kts 250°
2026-05-03 22:09 50.03726 8.53915 355 ft 20 kts 249°
2026-05-03 22:10 50.03630 8.53525 354 ft 21 kts 249°
2026-05-03 22:10 50.03572 8.53282 354 ft 24 kts 249°
2026-05-03 22:10 50.03512 8.53033 351 ft 24 kts 249°
2026-05-03 22:10 50.03449 8.52786 337 ft 25 kts 248°
2026-05-03 22:11 50.03360 8.52597 335 ft 19 kts 191°
2026-05-03 22:11 50.03167 8.52595 336 ft 49 kts 179°
2026-05-03 22:11 50.02631 8.52602 336 ft 104 kts 179°
2026-05-03 22:11 50.01731 8.52612 333 ft 153 kts 179°
2026-05-03 22:12 50.00548 8.52627 623 ft 178 kts 180°
2026-05-03 22:12 49.99303 8.52635 1362 ft 175 kts 182°
2026-05-03 22:12 49.98058 8.52655 2036 ft 189 kts 180°
2026-05-03 22:12 49.96712 8.53254 2383 ft 218 kts 151°
2026-05-03 22:13 49.95663 8.55081 2825 ft 236 kts 125°
2026-05-03 22:13 49.94843 8.57331 3406 ft 242 kts 122°
2026-05-03 22:13 49.94170 8.59748 4037 ft 248 kts 107°
2026-05-03 22:13 49.93911 8.62483 4395 ft 268 kts 96°
2026-05-03 22:14 49.93803 8.65424 4817 ft 282 kts 95°
2026-05-03 22:14 49.93479 8.68429 5456 ft 283 kts 115°
2026-05-03 22:14 49.92416 8.70906 6206 ft 273 kts 142°
2026-05-03 22:14 49.90956 8.72722 7020 ft 268 kts 150°
2026-05-03 22:15 49.89435 8.74418 7751 ft 272 kts 148°
2026-05-03 22:15 49.88099 8.76571 8457 ft 284 kts 131°
2026-05-03 22:15 49.87044 8.79206 9193 ft 290 kts 126°
2026-05-03 22:15 49.86053 8.81958 9919 ft 294 kts 125°
2026-05-03 22:16 49.85050 8.84770 10393 ft 305 kts 124°
2026-05-03 22:16 49.83985 8.87728 10651 ft 323 kts 124°
2026-05-03 22:16 49.82854 8.90851 10892 ft 342 kts 124°
2026-05-03 22:16 49.81660 8.94142 11104 ft 359 kts 123°
2026-05-03 22:17 49.80408 8.97590 11403 ft 374 kts 123°
2026-05-03 22:17 49.79123 9.01129 11937 ft 380 kts 123°
2026-05-03 22:17 49.77818 9.04718 12534 ft 385 kts 123°
2026-05-03 22:17 49.76551 9.08387 13129 ft 391 kts 118°
2026-05-03 22:18 49.75663 9.12407 13737 ft 399 kts 108°
2026-05-03 22:18 49.74909 9.16554 14262 ft 401 kts 112°
2026-05-03 22:18 49.73667 9.20388 14807 ft 398 kts 126°
2026-05-03 22:18 49.72050 9.23860 15393 ft 399 kts 132°
2026-05-03 22:19 49.70260 9.27152 15929 ft 400 kts 135°
2026-05-03 22:19 49.68389 9.30357 16508 ft 403 kts 136°
2026-05-03 22:19 49.66481 9.33557 17005 ft 407 kts 136°
2026-05-03 22:19 49.64564 9.36787 17551 ft 410 kts 135°
2026-05-03 22:20 49.62764 9.40226 18057 ft 416 kts 126°
2026-05-03 22:20 49.61380 9.44187 18546 ft 422 kts 117°
2026-05-03 22:20 49.60254 9.48388 18975 ft 426 kts 113°
2026-05-03 22:20 49.59261 9.52708 19449 ft 429 kts 111°
2026-05-03 22:21 49.58346 9.57038 19884 ft 432 kts 110°
2026-05-03 22:21 49.57437 9.61465 20327 ft 434 kts 110°
2026-05-03 22:21 49.56521 9.65914 20736 ft 437 kts 110°
2026-05-03 22:21 49.55588 9.70382 21125 ft 440 kts 111°
2026-05-03 22:22 49.54634 9.74872 21517 ft 442 kts 111°
2026-05-03 22:22 49.53630 9.79361 21945 ft 444 kts 115°
2026-05-03 22:22 49.52275 9.83610 22359 ft 442 kts 124°
2026-05-03 22:22 49.50553 9.87537 22791 ft 442 kts 129°
2026-05-03 22:23 49.48702 9.91321 23151 ft 445 kts 131°
2026-05-03 22:23 49.46757 9.95058 23498 ft 448 kts 133°
2026-05-03 22:23 49.44774 9.98762 23864 ft 450 kts 133°